| time (UTC) | temp F | wind direction | speed MPH | gust MPH | rain 1hr in | rain 24hr in | rain mn in | humidity % | barometer mb |
| 20260508031020 | 50 | 142 | 0.0 | 0.0 | 0.00 | 0.00 | 0.00 | 81 | 1018.3 |
| 20260508030408 | 50 | 142 | 0.0 | 0.0 | 0.00 | 0.00 | 0.00 | 81 | 1018.2 |
| 20260508025737 | 50 | 142 | 0.0 | 0.0 | 0.00 | 0.00 | 0.00 | 81 | 1018.1 |
| 20260508025121 | 50 | 141 | 0.0 | 0.0 | 0.00 | 0.00 | 0.00 | 80 | 1018.0 |
| 20260508024454 | 50 | 141 | 0.0 | 0.0 | 0.00 | 0.00 | 0.00 | 79 | 1017.9 |
| 20260508023842 | 50 | 141 | 0.0 | 0.0 | 0.00 | 0.00 | 0.00 | 77 | 1017.9 |
| 20260508023218 | 51 | 141 | 0.0 | 0.0 | 0.00 | 0.00 | 0.00 | 77 | 1017.7 |
| 20260508022545 | 51 | 141 | 0.0 | 0.0 | 0.00 | 0.00 | 0.00 | 77 | 1017.8 |
| 20260508021908 | 51 | 142 | 0.0 | 0.0 | 0.00 | 0.00 | 0.00 | 76 | 1017.8 |
| 20260508021245 | 52 | 141 | 0.0 | 0.0 | 0.00 | 0.00 | 0.00 | 76 | 1017.7 |
| 20260508020616 | 52 | 141 | 0.0 | 0.0 | 0.00 | 0.00 | 0.00 | 75 | 1017.5 |
| 20260508015948 | 52 | 141 | 0.0 | 0.0 | 0.00 | 0.00 | 0.00 | 73 | 1017.5 |
| 20260508015334 | 53 | 141 | 0.0 | 0.0 | 0.00 | 0.00 | 0.00 | 71 | 1017.5 |
| 20260508014715 | 53 | 141 | 0.0 | 0.0 | 0.00 | 0.00 | 0.00 | 71 | 1017.5 |
| 20260508014043 | 53 | 141 | 0.0 | 0.0 | 0.00 | 0.00 | 0.00 | 71 | 1017.5 |
| 20260508013409 | 53 | 142 | 0.0 | 0.0 | 0.00 | 0.00 | 0.00 | 70 | 1017.5 |
| 20260508012746 | 54 | 141 | 0.0 | 0.0 | 0.00 | 0.00 | 0.00 | 69 | 1017.3 |
| 20260508012124 | 54 | 141 | 0.0 | 0.0 | 0.00 | 0.00 | 0.00 | 69 | 1017.5 |
| 20260508011503 | 55 | 141 | 0.0 | 0.0 | 0.00 | 0.00 | 0.00 | 67 | 1017.3 |
| 20260508010855 | 55 | 142 | 0.0 | 0.0 | 0.00 | 0.00 | 0.00 | 66 | 1017.3 |
| 20260508010221 | 56 | 141 | 0.0 | 0.0 | 0.00 | 0.00 | 0.00 | 65 | 1017.2 |
| 20260508005610 | 56 | 141 | 0.0 | 0.0 | 0.00 | 0.00 | 0.00 | 63 | 1017.2 |
| 20260508004957 | 57 | 141 | 0.0 | 0.0 | 0.00 | 0.00 | 0.00 | 64 | 1017.0 |
| 20260508004347 | 57 | 141 | 0.0 | 0.0 | 0.00 | 0.00 | 0.00 | 60 | 1016.9 |
| 20260508003721 | 58 | 141 | 0.0 | 0.0 | 0.00 | 0.00 | 0.00 | 59 | 1016.9 |
| 20260508003105 | 59 | 141 | 0.0 | 0.0 | 0.00 | 0.00 | 0.00 | 58 | 1016.9 |
| 20260508002437 | 59 | 141 | 0.0 | 0.0 | 0.00 | 0.00 | 0.00 | 56 | 1016.9 |
| 20260508001802 | 60 | 139 | 0.0 | 0.0 | 0.00 | 0.00 | 0.00 | 55 | 1016.8 |
| 20260508001150 | 61 | 139 | 0.0 | 0.0 | 0.00 | 0.00 | 0.00 | 55 | 1016.7 |
| 20260508000535 | 62 | 139 | 0.0 | 0.0 | 0.00 | 0.00 | 0.00 | 54 | 1016.7 |
| 20260507235902 | 63 | 134 | 0.0 | 0.0 | 0.00 | 0.00 | 0.00 | 53 | 1016.6 |
| 20260507235225 | 64 | 108 | 0.0 | 0.0 | 0.00 | 0.00 | 0.00 | 50 | 1016.5 |
| 20260507234555 | 65 | 105 | 0.0 | 0.0 | 0.00 | 0.00 | 0.00 | 48 | 1016.6 |
| 20260507233933 | 66 | 105 | 0.0 | 0.0 | 0.00 | 0.00 | 0.00 | 45 | 1016.5 |
| 20260507233323 | 67 | 103 | 0.0 | 0.0 | 0.00 | 0.00 | 0.00 | 43 | 1016.6 |
| 20260507232653 | 66 | 103 | 0.0 | 0.0 | 0.00 | 0.00 | 0.00 | 42 | 1016.5 |
| 20260507232026 | 65 | 105 | 0.0 | 0.0 | 0.00 | 0.00 | 0.00 | 43 | 1016.5 |
| 20260507231349 | 65 | 237 | 0.0 | 0.0 | 0.00 | 0.00 | 0.00 | 42 | 1016.6 |
| 20260507230717 | 65 | 238 | 0.0 | 0.0 | 0.00 | 0.00 | 0.00 | 41 | 1016.6 |
| 20260507230043 | 65 | 238 | 0.0 | 0.0 | 0.00 | 0.00 | 0.00 | 41 | 1016.7 |
| 20260507225412 | 65 | 248 | 0.0 | 0.0 | 0.00 | 0.00 | 0.00 | 41 | 1016.7 |
| 20260507224803 | 66 | 44 | 0.0 | 0.0 | 0.00 | 0.00 | 0.00 | 41 | 1016.7 |
| 20260507224153 | 66 | 343 | 0.0 | 1.0 | 0.00 | 0.01 | 0.00 | 39 | 1016.7 |
| 20260507223532 | 66 | 69 | 0.0 | 0.0 | 0.00 | 0.01 | 0.00 | 38 | 1016.7 |
| 20260507222859 | 67 | 205 | 0.0 | 0.0 | 0.00 | 0.01 | 0.00 | 38 | 1016.7 |
| 20260507222237 | 68 | 149 | 0.0 | 0.0 | 0.00 | 0.03 | 0.00 | 37 | 1016.7 |
| 20260507221617 | 68 | 30 | 0.0 | 0.0 | 0.00 | 0.04 | 0.00 | 37 | 1016.8 |
| 20260507220947 | 68 | 203 | 0.0 | 0.0 | 0.00 | 0.04 | 0.00 | 39 | 1016.8 |
| 20260507220327 | 68 | 68 | 0.0 | 1.0 | 0.00 | 0.04 | 0.00 | 40 | 1016.8 |
| 20260507215717 | 68 | 12 | 0.0 | 0.0 | 0.00 | 0.05 | 0.00 | 43 | 1016.7 |
| 20260507215102 | 67 | 80 | 0.0 | 0.0 | 0.00 | 0.05 | 0.00 | 42 | 1016.6 |
| 20260507214454 | 67 | 112 | 0.0 | 0.0 | 0.00 | 0.05 | 0.00 | 41 | 1016.6 |
| 20260507213826 | 68 | 87 | 0.0 | 3.0 | 0.00 | 0.05 | 0.00 | 39 | 1016.7 |
| 20260507213208 | 69 | 23 | 0.0 | 2.0 | 0.00 | 0.05 | 0.00 | 40 | 1016.7 |
| 20260507212547 | 68 | 105 | 0.0 | 0.0 | 0.00 | 0.06 | 0.00 | 42 | 1016.7 |
| 20260507211911 | 67 | 205 | 0.0 | 0.0 | 0.00 | 0.06 | 0.00 | 40 | 1016.7 |
| 20260507211247 | 68 | 20 | 0.0 | 3.0 | 0.00 | 0.07 | 0.00 | 39 | 1016.8 |
| 20260507210628 | 68 | 243 | 0.0 | 2.0 | 0.00 | 0.07 | 0.00 | 40 | 1016.7 |
| 20260507210016 | 68 | 60 | 0.0 | 0.0 | 0.00 | 0.08 | 0.00 | 40 | 1016.8 |
| 20260507205404 | 67 | 202 | 0.0 | 0.0 | 0.00 | 0.09 | 0.00 | 41 | 1016.8 |
| 20260507204732 | 67 | 221 | 0.0 | 2.0 | 0.00 | 0.09 | 0.00 | 43 | 1016.8 |
| 20260507204056 | 67 | 51 | 0.0 | 6.0 | 0.00 | 0.09 | 0.00 | 43 | 1016.8 |
| 20260507203427 | 67 | 68 | 0.0 | 6.0 | 0.00 | 0.09 | 0.00 | 41 | 1016.9 |
| 20260507202751 | 67 | 41 | 0.0 | 0.0 | 0.00 | 0.09 | 0.00 | 38 | 1017.0 |
| 20260507202138 | 67 | 342 | 0.0 | 0.0 | 0.00 | 0.09 | 0.00 | 43 | 1017.1 |
| 20260507201513 | 67 | 265 | 0.0 | 0.0 | 0.00 | 0.09 | 0.00 | 41 | 1017.1 |
| 20260507200840 | 66 | 75 | 0.0 | 5.0 | 0.00 | 0.09 | 0.00 | 42 | 1017.1 |
| 20260507200231 | 66 | 83 | 0.0 | 5.0 | 0.00 | 0.09 | 0.00 | 44 | 1017.3 |
| 20260507195600 | 66 | 123 | 0.0 | 5.0 | 0.00 | 0.09 | 0.00 | 42 | 1017.2 |
| 20260507194940 | 66 | 74 | 0.0 | 1.0 | 0.00 | 0.09 | 0.00 | 42 | 1017.3 |
| 20260507194312 | 66 | 94 | 0.0 | 4.0 | 0.00 | 0.09 | 0.00 | 43 | 1017.3 |
| 20260507193704 | 66 | 266 | 0.0 | 0.0 | 0.00 | 0.09 | 0.00 | 44 | 1017.3 |
| 20260507193027 | 67 | 72 | 0.0 | 3.0 | 0.00 | 0.09 | 0.00 | 44 | 1017.4 |
| 20260507192350 | 66 | 36 | 0.0 | 0.0 | 0.00 | 0.09 | 0.00 | 45 | 1017.4 |
| 20260507191734 | 65 | 207 | 0.0 | 6.0 | 0.00 | 0.09 | 0.00 | 42 | 1017.5 |
| 20260507191104 | 65 | 269 | 0.0 | 5.0 | 0.00 | 0.09 | 0.00 | 45 | 1017.5 |
| 20260507190441 | 65 | 214 | 0.0 | 5.0 | 0.00 | 0.09 | 0.00 | 44 | 1017.4 |
| 20260507185820 | 64 | 130 | 1.0 | 5.0 | 0.00 | 0.09 | 0.00 | 42 | 1017.5 |
| 20260507185204 | 65 | 70 | 0.0 | 4.0 | 0.00 | 0.09 | 0.00 | 44 | 1017.6 |
| 20260507184547 | 65 | 77 | 0.0 | 4.0 | 0.00 | 0.09 | 0.00 | 43 | 1017.6 |
| 20260507183934 | 65 | 20 | 0.0 | 1.0 | 0.00 | 0.09 | 0.00 | 46 | 1017.7 |
| 20260507183315 | 65 | 35 | 0.0 | 6.0 | 0.00 | 0.09 | 0.00 | 45 | 1017.7 |
| 20260507182641 | 65 | 68 | 0.0 | 6.0 | 0.00 | 0.09 | 0.00 | 42 | 1017.8 |
| 20260507182019 | 65 | 102 | 0.0 | 2.0 | 0.00 | 0.09 | 0.00 | 42 | 1017.8 |
| 20260507181358 | 65 | 174 | 0.0 | 0.0 | 0.00 | 0.09 | 0.00 | 44 | 1017.9 |
| 20260507180724 | 64 | 151 | 0.0 | 4.0 | 0.00 | 0.09 | 0.00 | 44 | 1018.0 |
| 20260507175433 | 65 | 120 | 0.0 | 0.0 | 0.00 | 0.09 | 0.00 | 45 | 1018.0 |
| 20260507174811 | 65 | 68 | 0.0 | 4.0 | 0.00 | 0.09 | 0.00 | 43 | 1018.1 |
| 20260507174144 | 65 | 318 | 0.0 | 4.0 | 0.00 | 0.09 | 0.00 | 47 | 1018.2 |
| 20260507173527 | 64 | 225 | 0.0 | 0.0 | 0.00 | 0.09 | 0.00 | 45 | 1018.3 |
| 20260507172910 | 64 | 243 | 0.0 | 3.0 | 0.00 | 0.09 | 0.00 | 45 | 1018.4 |
| 20260507172300 | 64 | 195 | 0.0 | 1.0 | 0.00 | 0.09 | 0.00 | 44 | 1018.4 |
| 20260507171643 | 64 | 28 | 0.0 | 5.0 | 0.00 | 0.09 | 0.00 | 48 | 1018.4 |
| 20260507171035 | 64 | 32 | 0.0 | 5.0 | 0.00 | 0.09 | 0.00 | 47 | 1018.5 |
| 20260507170416 | 64 | 68 | 0.0 | 4.0 | 0.00 | 0.09 | 0.00 | 47 | 1018.5 |
| 20260507165747 | 64 | 325 | 0.0 | 3.0 | 0.00 | 0.09 | 0.00 | 46 | 1018.6 |
| 20260507165131 | 64 | 169 | 0.0 | 2.0 | 0.00 | 0.09 | 0.00 | 48 | 1018.6 |
| 20260507164523 | 63 | 141 | 0.0 | 4.0 | 0.00 | 0.09 | 0.00 | 50 | 1018.7 |
| 20260507163908 | 63 | 331 | 0.0 | 4.0 | 0.00 | 0.09 | 0.00 | 49 | 1018.8 |
| 20260507163251 | 63 | 101 | 0.0 | 2.0 | 0.00 | 0.09 | 0.00 | 49 | 1019.0 |
| 20260507162639 | 63 | 356 | 0.0 | 2.0 | 0.00 | 0.09 | 0.00 | 51 | 1019.1 |
| 20260507162020 | 63 | 69 | 0.0 | 3.0 | 0.00 | 0.09 | 0.00 | 50 | 1019.2 |
| 20260507161348 | 63 | 136 | 0.0 | 0.0 | 0.00 | 0.09 | 0.00 | 53 | 1019.3 |
| 20260507160732 | 63 | 108 | 0.0 | 0.0 | 0.00 | 0.09 | 0.00 | 53 | 1019.1 |
| 20260507160056 | 62 | 275 | 0.0 | 2.0 | 0.00 | 0.09 | 0.00 | 54 | 1019.3 |
| 20260507155429 | 62 | 321 | 0.0 | 4.0 | 0.00 | 0.09 | 0.00 | 52 | 1019.1 |
| 20260507154804 | 61 | 82 | 0.0 | 4.0 | 0.00 | 0.09 | 0.00 | 55 | 1019.1 |
| 20260507154138 | 61 | 255 | 0.0 | 4.0 | 0.00 | 0.09 | 0.00 | 55 | 1019.0 |
| 20260507153514 | 61 | 269 | 0.0 | 1.0 | 0.00 | 0.09 | 0.00 | 60 | 1019.1 |
| 20260507152846 | 61 | 49 | 0.0 | 2.0 | 0.00 | 0.09 | 0.00 | 60 | 1019.0 |
| 20260507152233 | 61 | 0 | 0.0 | 1.0 | 0.00 | 0.09 | 0.00 | 61 | 1018.9 |
| 20260507151608 | 60 | 279 | 0.0 | 3.0 | 0.00 | 0.09 | 0.00 | 59 | 1019.0 |
| 20260507150949 | 60 | 276 | 0.0 | 2.0 | 0.00 | 0.09 | 0.00 | 63 | 1018.9 |
| 20260507150324 | 60 | 248 | 0.0 | 0.0 | 0.00 | 0.09 | 0.00 | 69 | 1019.1 |
| 20260507145657 | 60 | 270 | 0.0 | 0.0 | 0.00 | 0.09 | 0.00 | 68 | 1019.0 |
| 20260507145048 | 59 | 229 | 0.0 | 0.0 | 0.00 | 0.09 | 0.00 | 69 | 1019.0 |
| 20260507144428 | 58 | 75 | 0.0 | 0.0 | 0.00 | 0.09 | 0.00 | 68 | 1019.2 |
| 20260507143810 | 58 | 44 | 0.0 | 0.0 | 0.00 | 0.09 | 0.00 | 73 | 1019.4 |
| 20260507143150 | 58 | 308 | 0.0 | 0.0 | 0.00 | 0.09 | 0.00 | 75 | 1019.2 |
| 20260507142530 | 57 | 189 | 0.0 | 0.0 | 0.00 | 0.09 | 0.00 | 74 | 1019.1 |
| 20260507141857 | 56 | 71 | 0.0 | 2.0 | 0.00 | 0.09 | 0.00 | 75 | 1019.1 |
| 20260507141247 | 56 | 53 | 0.0 | 1.0 | 0.00 | 0.09 | 0.00 | 76 | 1019.1 |
| 20260507140622 | 55 | 89 | 0.0 | 0.0 | 0.00 | 0.09 | 0.00 | 78 | 1019.1 |
| 20260507140009 | 55 | 124 | 0.0 | 3.0 | 0.00 | 0.09 | 0.00 | 77 | 1019.0 |
| 20260507135358 | 55 | 61 | 0.0 | 3.0 | 0.00 | 0.09 | 0.00 | 76 | 1019.0 |
| 20260507134728 | 54 | 98 | 0.0 | 3.0 | 0.00 | 0.09 | 0.00 | 78 | 1019.0 |
| 20260507134103 | 54 | 16 | 0.0 | 2.0 | 0.00 | 0.09 | 0.00 | 77 | 1019.1 |
| 20260507133439 | 54 | 73 | 0.0 | 2.0 | 0.00 | 0.09 | 0.00 | 80 | 1019.1 |
| 20260507132821 | 54 | 229 | 0.0 | 3.0 | 0.00 | 0.09 | 0.00 | 81 | 1018.9 |
| 20260507132326 | 53 | 224 | 0.0 | 3.0 | 0.00 | 0.09 | 0.00 | 81 | 1018.8 |
| 20260507131825 | 53 | 68 | 0.0 | 1.0 | 0.00 | 0.09 | 0.00 | 82 | 1018.8 |
| 20260507131317 | 53 | 68 | 0.0 | 4.0 | 0.00 | 0.09 | 0.00 | 84 | 1018.8 |
| 20260507130814 | 52 | 58 | 0.0 | 4.0 | 0.00 | 0.09 | 0.00 | 85 | 1018.8 |
| 20260507130252 | 52 | 80 | 0.0 | 4.0 | 0.00 | 0.09 | 0.00 | 88 | 1018.7 |
| 20260507125748 | 51 | 39 | 0.0 | 3.0 | 0.00 | 0.09 | 0.00 | 88 | 1018.6 |
| 20260507125250 | 51 | 124 | 0.0 | 0.0 | 0.00 | 0.09 | 0.00 | 90 | 1018.5 |
| 20260507124729 | 50 | 103 | 0.0 | 0.0 | 0.00 | 0.09 | 0.00 | 91 | 1018.4 |
| 20260507124214 | 50 | 60 | 0.0 | 0.0 | 0.00 | 0.09 | 0.00 | 92 | 1018.4 |
| 20260507123713 | 50 | 111 | 0.0 | 0.0 | 0.00 | 0.09 | 0.00 | 93 | 1018.5 |
| 20260507123201 | 50 | 108 | 0.0 | 0.0 | 0.00 | 0.09 | 0.00 | 93 | 1018.4 |
| 20260507122640 | 49 | 67 | 0.0 | 3.0 | 0.00 | 0.09 | 0.00 | 94 | 1018.5 |
| 20260507122141 | 49 | 65 | 0.0 | 2.0 | 0.00 | 0.09 | 0.00 | 94 | 1018.4 |
| 20260507121635 | 49 | 355 | 0.0 | 0.0 | 0.00 | 0.09 | 0.00 | 94 | 1018.1 |
| 20260507121115 | 48 | 242 | 0.0 | 0.0 | 0.00 | 0.09 | 0.00 | 95 | 1018.1 |
| 20260507120614 | 48 | 171 | 0.0 | 2.0 | 0.00 | 0.09 | 0.00 | 95 | 1018.0 |
| 20260507120056 | 48 | 39 | 0.0 | 0.0 | 0.00 | 0.09 | 0.00 | 95 | 1018.0 |
| 20260507115555 | 48 | 37 | 0.0 | 1.0 | 0.00 | 0.09 | 0.00 | 95 | 1018.0 |
| 20260507115048 | 48 | 84 | 0.0 | 0.0 | 0.00 | 0.09 | 0.00 | 95 | 1018.0 |
| 20260507114538 | 47 | 34 | 0.0 | 1.0 | 0.00 | 0.09 | 0.00 | 95 | 1018.0 |
| 20260507114021 | 47 | 17 | 0.0 | 0.0 | 0.00 | 0.09 | 0.00 | 95 | 1017.9 |
| 20260507113514 | 47 | 98 | 0.0 | 0.0 | 0.00 | 0.09 | 0.00 | 96 | 1017.9 |
| 20260507112953 | 47 | 309 | 0.0 | 0.0 | 0.00 | 0.09 | 0.00 | 96 | 1017.9 |
| 20260507112459 | 47 | 132 | 0.0 | 0.0 | 0.00 | 0.09 | 0.00 | 96 | 1017.9 |
| 20260507111953 | 47 | 68 | 0.0 | 0.0 | 0.00 | 0.09 | 0.00 | 96 | 1017.8 |
| 20260507111459 | 47 | 96 | 0.0 | 0.0 | 0.00 | 0.09 | 0.00 | 96 | 1017.9 |
| 20260507111003 | 47 | 96 | 0.0 | 0.0 | 0.00 | 0.09 | 0.00 | 95 | 1017.9 |
| 20260507110458 | 47 | 91 | 0.0 | 0.0 | 0.00 | 0.09 | 0.00 | 95 | 1017.8 |
| 20260507105940 | 47 | 88 | 0.0 | 0.0 | 0.00 | 0.09 | 0.00 | 95 | 1017.9 |
| 20260507105423 | 47 | 86 | 0.0 | 0.0 | 0.00 | 0.09 | 0.00 | 95 | 1017.8 |
| 20260507104913 | 47 | 85 | 0.0 | 0.0 | 0.00 | 0.09 | 0.00 | 96 | 1017.7 |
| 20260507104414 | 47 | 84 | 0.0 | 0.0 | 0.00 | 0.09 | 0.00 | 95 | 1017.7 |
| 20260507103908 | 47 | 84 | 0.0 | 0.0 | 0.00 | 0.09 | 0.00 | 95 | 1017.7 |
| 20260507103412 | 47 | 84 | 0.0 | 0.0 | 0.00 | 0.10 | 0.00 | 95 | 1017.7 |
| 20260507102902 | 47 | 79 | 0.0 | 0.0 | 0.00 | 0.10 | 0.00 | 95 | 1017.7 |
| 20260507102351 | 47 | 140 | 0.0 | 0.0 | 0.00 | 0.10 | 0.00 | 95 | 1017.7 |
| 20260507101851 | 47 | 140 | 0.0 | 0.0 | 0.00 | 0.10 | 0.00 | 95 | 1017.6 |
| 20260507101330 | 47 | 140 | 0.0 | 0.0 | 0.00 | 0.10 | 0.00 | 95 | 1017.5 |
| 20260507100825 | 47 | 103 | 0.0 | 0.0 | 0.00 | 0.10 | 0.00 | 95 | 1017.5 |
| 20260507100326 | 47 | 103 | 0.0 | 0.0 | 0.00 | 0.10 | 0.00 | 95 | 1017.5 |
| 20260507095811 | 47 | 103 | 0.0 | 0.0 | 0.00 | 0.10 | 0.00 | 95 | 1017.5 |
| 20260507095250 | 46 | 103 | 0.0 | 0.0 | 0.00 | 0.10 | 0.00 | 95 | 1017.5 |
| 20260507094748 | 47 | 103 | 0.0 | 0.0 | 0.00 | 0.10 | 0.00 | 95 | 1017.5 |
| 20260507094238 | 47 | 103 | 0.0 | 0.0 | 0.00 | 0.10 | 0.00 | 95 | 1017.5 |
| 20260507093743 | 47 | 103 | 0.0 | 0.0 | 0.00 | 0.10 | 0.00 | 95 | 1017.5 |
| 20260507093237 | 47 | 103 | 0.0 | 0.0 | 0.00 | 0.10 | 0.00 | 95 | 1017.4 |
| 20260507092717 | 47 | 103 | 0.0 | 0.0 | 0.00 | 0.10 | 0.00 | 95 | 1017.4 |
| 20260507092219 | 48 | 103 | 0.0 | 0.0 | 0.00 | 0.10 | 0.00 | 95 | 1017.2 |
| 20260507091709 | 48 | 103 | 0.0 | 0.0 | 0.00 | 0.10 | 0.00 | 95 | 1017.3 |
| 20260507091215 | 48 | 103 | 0.0 | 0.0 | 0.00 | 0.10 | 0.00 | 95 | 1017.0 |
| 20260507090713 | 48 | 103 | 0.0 | 0.0 | 0.00 | 0.10 | 0.00 | 95 | 1017.1 |
| 20260507090210 | 48 | 103 | 0.0 | 0.0 | 0.00 | 0.10 | 0.00 | 95 | 1017.1 |
| 20260507085649 | 48 | 103 | 0.0 | 0.0 | 0.00 | 0.10 | 0.00 | 95 | 1017.0 |
| 20260507085141 | 48 | 103 | 0.0 | 0.0 | 0.00 | 0.10 | 0.00 | 95 | 1017.1 |
| 20260507084647 | 48 | 103 | 0.0 | 0.0 | 0.00 | 0.10 | 0.00 | 95 | 1016.9 |
| 20260507084145 | 48 | 103 | 0.0 | 0.0 | 0.00 | 0.10 | 0.00 | 94 | 1017.0 |
| 20260507083648 | 49 | 84 | 0.0 | 0.0 | 0.00 | 0.10 | 0.00 | 95 | 1017.0 |
| 20260507083139 | 49 | 84 | 0.0 | 0.0 | 0.00 | 0.10 | 0.00 | 95 | 1016.9 |
| 20260507082639 | 49 | 114 | 0.0 | 0.0 | 0.00 | 0.10 | 0.00 | 95 | 1016.8 |
| 20260507082126 | 49 | 114 | 0.0 | 0.0 | 0.00 | 0.10 | 0.00 | 95 | 1017.0 |
| 20260507081633 | 49 | 115 | 0.0 | 0.0 | 0.00 | 0.10 | 0.00 | 95 | 1016.9 |
| 20260507081139 | 49 | 115 | 0.0 | 0.0 | 0.00 | 0.10 | 0.00 | 95 | 1016.9 |
| 20260507080638 | 49 | 115 | 0.0 | 0.0 | 0.00 | 0.10 | 0.00 | 95 | 1016.9 |
| 20260507080130 | 49 | 120 | 0.0 | 0.0 | 0.00 | 0.11 | 0.00 | 95 | 1016.9 |
| 20260507075620 | 49 | 120 | 0.0 | 0.0 | 0.00 | 0.12 | 0.00 | 95 | 1016.9 |
| 20260507075104 | 49 | 120 | 0.0 | 0.0 | 0.00 | 0.12 | 0.00 | 95 | 1017.0 |
| 20260507074549 | 49 | 356 | 0.0 | 0.0 | 0.00 | 0.12 | 0.00 | 95 | 1017.0 |
| 20260507074054 | 49 | 342 | 0.0 | 0.0 | 0.00 | 0.12 | 0.00 | 95 | 1017.0 |
| 20260507073533 | 48 | 335 | 0.0 | 0.0 | 0.00 | 0.12 | 0.00 | 95 | 1017.1 |
| 20260507073032 | 48 | 60 | 0.0 | 0.0 | 0.00 | 0.12 | 0.00 | 95 | 1017.0 |
| 20260507072512 | 48 | 81 | 0.0 | 0.0 | 0.00 | 0.12 | 0.00 | 95 | 1017.0 |
| 20260507072013 | 48 | 81 | 0.0 | 0.0 | 0.00 | 0.13 | 0.00 | 95 | 1017.0 |
| 20260507071513 | 48 | 81 | 0.0 | 0.0 | 0.00 | 0.17 | 0.00 | 95 | 1017.0 |
| 20260507071016 | 48 | 81 | 0.0 | 0.0 | 0.00 | 0.17 | 0.00 | 95 | 1017.0 |
| 20260507070505 | 48 | 81 | 0.0 | 0.0 | 0.00 | 0.18 | 0.00 | 95 | 1017.0 |
| 20260507065955 | 48 | 81 | 0.0 | 0.0 | 0.00 | 0.18 | 0.00 | 95 | 1017.0 |
| 20260507065459 | 49 | 81 | 0.0 | 0.0 | 0.00 | 0.18 | 0.00 | 95 | 1016.9 |
| 20260507064937 | 49 | 81 | 0.0 | 0.0 | 0.00 | 0.20 | 0.00 | 95 | 1016.9 |
| 20260507064438 | 49 | 81 | 0.0 | 0.0 | 0.00 | 0.20 | 0.00 | 95 | 1017.0 |
| 20260507063938 | 49 | 81 | 0.0 | 0.0 | 0.00 | 0.20 | 0.00 | 95 | 1016.9 |
| 20260507063440 | 49 | 79 | 0.0 | 0.0 | 0.00 | 0.20 | 0.00 | 95 | 1016.8 |
| 20260507062921 | 49 | 203 | 0.0 | 0.0 | 0.00 | 0.20 | 0.00 | 95 | 1017.1 |
| 20260507062406 | 49 | 203 | 0.0 | 0.0 | 0.00 | 0.20 | 0.00 | 95 | 1017.2 |
| 20260507061855 | 49 | 245 | 0.0 | 0.0 | 0.00 | 0.20 | 0.00 | 95 | 1017.3 |
| 20260507061339 | 49 | 249 | 0.0 | 0.0 | 0.00 | 0.20 | 0.00 | 95 | 1017.3 |
| 20260507060817 | 49 | 249 | 0.0 | 0.0 | 0.00 | 0.20 | 0.00 | 95 | 1017.1 |
| 20260507060256 | 49 | 248 | 0.0 | 0.0 | 0.00 | 0.20 | 0.00 | 96 | 1017.2 |
| 20260507055752 | 49 | 257 | 0.0 | 0.0 | 0.00 | 0.20 | 0.00 | 96 | 1017.3 |
| 20260507055242 | 49 | 256 | 0.0 | 0.0 | 0.00 | 0.21 | 0.00 | 96 | 1017.1 |
| 20260507054750 | 49 | 256 | 0.0 | 0.0 | 0.00 | 0.21 | 0.00 | 96 | 1017.3 |
| 20260507054243 | 49 | 256 | 0.0 | 0.0 | 0.00 | 0.21 | 0.00 | 96 | 1017.4 |
| 20260507053722 | 49 | 256 | 0.0 | 0.0 | 0.00 | 0.21 | 0.00 | 96 | 1017.4 |
| 20260507053218 | 49 | 121 | 0.0 | 0.0 | 0.00 | 0.21 | 0.00 | 96 | 1017.2 |
| 20260507052709 | 49 | 121 | 0.0 | 0.0 | 0.00 | 0.21 | 0.00 | 96 | 1017.2 |
| 20260507052151 | 49 | 121 | 0.0 | 0.0 | 0.00 | 0.21 | 0.00 | 96 | 1017.4 |
| 20260507051656 | 49 | 121 | 0.0 | 0.0 | 0.00 | 0.21 | 0.00 | 95 | 1017.0 |
| 20260507051153 | 49 | 121 | 0.0 | 0.0 | 0.00 | 0.21 | 0.00 | 96 | 1017.0 |
| 20260507050659 | 49 | 121 | 0.0 | 0.0 | 0.00 | 0.21 | 0.00 | 95 | 1017.0 |
| 20260507050154 | 50 | 121 | 0.0 | 0.0 | 0.00 | 0.21 | 0.00 | 95 | 1017.0 |
| 20260507045648 | 50 | 121 | 0.0 | 0.0 | 0.00 | 0.21 | 0.21 | 95 | 1017.1 |
| 20260507045128 | 50 | 121 | 0.0 | 0.0 | 0.00 | 0.21 | 0.21 | 95 | 1017.2 |
| 20260507044618 | 50 | 121 | 0.0 | 0.0 | 0.00 | 0.23 | 0.21 | 95 | 1017.0 |
| 20260507044055 | 50 | 121 | 0.0 | 0.0 | 0.00 | 0.28 | 0.21 | 95 | 1017.2 |
| 20260507043602 | 50 | 121 | 0.0 | 0.0 | 0.00 | 0.32 | 0.21 | 95 | 1017.3 |
| 20260507043101 | 50 | 121 | 0.0 | 0.0 | 0.00 | 0.33 | 0.21 | 95 | 1017.3 |
| 20260507042542 | 50 | 121 | 0.0 | 0.0 | 0.00 | 0.33 | 0.21 | 95 | 1017.3 |
| 20260507042031 | 50 | 121 | 0.0 | 0.0 | 0.00 | 0.34 | 0.21 | 95 | 1017.1 |
| 20260507041531 | 50 | 121 | 0.0 | 0.0 | 0.00 | 0.34 | 0.21 | 95 | 1017.3 |
| 20260507041033 | 51 | 121 | 0.0 | 0.0 | 0.00 | 0.34 | 0.21 | 95 | 1017.4 |
| 20260507040537 | 51 | 121 | 1.0 | 0.0 | 0.00 | 0.34 | 0.21 | 95 | 1017.4 |
| 20260507040043 | 51 | 121 | 1.0 | 0.0 | 0.00 | 0.34 | 0.21 | 95 | 1017.4 |
| 20260507035523 | 51 | 121 | 2.0 | 0.0 | 0.00 | 0.34 | 0.21 | 95 | 1017.2 |
| 20260507035020 | 51 | 121 | 2.0 | 0.0 | 0.00 | 0.34 | 0.21 | 95 | 1017.4 |
| 20260507034526 | 51 | 121 | 0.0 | 0.0 | 0.00 | 0.34 | 0.21 | 95 | 1017.4 |
| 20260507034019 | 51 | 121 | 0.0 | 0.0 | 0.00 | 0.34 | 0.21 | 95 | 1017.4 |
| 20260507033459 | 51 | 121 | 0.0 | 0.0 | 0.00 | 0.34 | 0.21 | 95 | 1017.3 |
| 20260507032948 | 51 | 121 | 0.0 | 26.0 | 0.00 | 0.34 | 0.21 | 95 | 1017.2 |
| 20260507032432 | 51 | 121 | 0.0 | 26.0 | 0.00 | 0.34 | 0.21 | 95 | 1017.0 |
| 20260507031933 | 51 | 121 | 0.0 | 26.0 | 0.00 | 0.34 | 0.21 | 95 | 1017.0 |
| 20260507031438 | 51 | 121 | 0.0 | 26.0 | 0.00 | 0.34 | 0.21 | 95 | 1016.7 |